Probability
0 0 0 0 0 0 0 0 0 0 0 0 0 0 0 0 0 0 0 0 0 0 0 0 0 0 0 0 3 6 6 6 6 6 6 6 3 0 0 0 0 0 0 0
0 0 0 0 0 0 0 0 0 0 0 0 0 0 0 0 0 3 0 0 0 0 0 0 0 0 0 0 3 3 6 6 6 6 6 6 6 3 0 0 0 0 0 0
0 0 0 0 0 0 0 0 0 0 0 0 0 0 0 0 0 0 0 0 0 0 0 0 0 0 0 0 3 3 3 3 3 6 6 6 3 3 3 0 0 0 0 0
0 0 0 0 0 0 0 0 0 0 0 0 0 0 0 0 0 0 0 0 0 0 0 0 0 0 0 3 3 3 3 3 3 3 6 6 3 3 3 0 0 0 0 0
0 0 0 0 0 0 0 0 0 0 0 0 0 0 0 0 0 0 0 0 0 0 0 0 0 0 0 3 6 3 3 3 3 3 10 6 3 3 3 0 0 0 0 0
0 0 0 0 0 0 0 0 0 0 0 0 0 0 0 0 0 0 0 0 0 0 0 0 0 0 0 3 3 6 3 3 3 3 6 6 6 3 3 3 0 0 0 0
0 0 0 0 0 0 0 0 0 0 0 0 0 0 0 0 0 0 0 0 0 0 0 0 0 0 0 3 3 6 3 3 3 3 6 6 6 3 3 0 0 0 0 0
0 0 0 0 0 0 0 0 0 0 0 0 0 0 0 0 0 3 3 0 0 0 0 0 0 0 0 3 3 6 6 3 6 3 6 6 6 3 0 0 0 0 0 0
0 0 0 0 0 0 0 0 0 0 0 0 0 0 0 0 0 0 0 0 0 0 0 0 0 0 0 0 3 3 6 6 6 3 0 3 3 0 0 0 0 0 0 0
0 0 0 0 0 0 0 0 0 0 0 0 0 0 0 0 0 0 0 0 0 0 0 0 0 0 0 3 3 3 6 6 6 0 3 3 3 0 0 0 0 0 0 0
0 0 0 0 0 0 0 0 0 0 0 0 0 0 0 0 0 0 0 0 0 0 0 0 0 3 3 3 3 3 3 3 3 3 3 3 3 0 0 0 0 0 0 0
0 0 0 0 0 0 0 0 0 0 0 0 0 0 0 0 0 0 0 0 0 0 3 3 3 0 0 3 3 3 3 0 0 0 0 0 0 0 0 0 0 0 0 0
0 0 0 0 0 0 0 0 0 0 0 0 0 0 0 0 0 0 0 0 0 0 3 3 3 0 0 3 3 3 0 0 0 0 0 0 0 0 0 0 0 0 0 0
0 0 0 0 0 0 0 0 0 0 0 0 0 0 0 0 0 0 0 0 0 3 3 3 3 0 0 3 3 0 0 0 0 0 0 0 0 0 0 0 0 0 0 0
0 0 0 0 0 0 0 0 0 0 0 0 0 0 0 0 0 0 0 0 0 3 3 3 3 3 3 3 3 0 0 0 0 0 0 0 0 0 0 0 0 0 0 0
0 0 0 0 0 0 0 0 0 0 0 0 0 0 0 0 0 0 0 0 0 0 3 3 3 3 3 3 0 0 0 0 0 0 0 0 0 0 0 0 0 0 0 0
0 0 0 0 0 0 0 0 0 0 0 0 0 0 0 0 0 0 0 0 0 0 3 3 3 3 0 0 0 0 0 0 0 0 0 0 0 0 0 0 0 0 0 0
0 0 0 0 0 0 0 0 0 0 0 0 0 0 0 0 0 0 0 0 0 0 3 3 3 0 0 0 0 0 0 0 0 0 0 0 0 0 0 0 0 0 0 0
0 0 0 0 0 0 0 0 0 0 0 0 0 0 0 0 0 0 0 0 0 0 0 0 3 0 0 0 0 0 0 0 0 0 0 0 0 0 0 0 0 0 0 0
0 0 0 0 0 0 0 0 0 0 0 0 0 0 0 0 0 0 0 0 0 0 0 0 0 0 0 0 0 0 0 0 0 0 0 0 0 0 0 0 0 0 0 0
0 0 0 0 0 0 0 0 0 0 0 0 0 0 0 0 0 0 0 0 0 0 0 0 0 0 0 0 0 0 0 0 0 0 0 0 0 0 0 0 0 0 0 0
0 0 0 0 0 0 0 0 0 0 0 0 0 0 0 0 0 0 0 0 0 0 0 0 0 0 0 0 0 0 0 0 0 0 0 0 0 0 0 0 0 0 0 0
0 0 0 0 0 0 0 0 0 0 0 0 0 0 0 0 0 0 0 0 0 0 0 0 0 0 0 0 0 0 0 0 0 0 0 0 0 0 0 0 0 0 0 0
0 0 0 0 0 0 0 0 0 0 0 0 0 0 0 0 0 0 0 0 0 0 0 0 0 0 0 0 0 0 0 0 0 0 0 0 0 0 0 0 0 0 0 0
0 0 0 0 0 0 0 0 0 0 0 0 0 0 0 0 0 0 0 0 0 0 0 0 0 0 0 0 0 0 0 0 0 0 0 0 0 0 0 0 0 0 0 0
0 0 0 0 0 0 0 0 0 0 0 0 0 0 0 0 0 0 0 0 0 0 0 0 0 0 0 0 0 0 0 0 0 0 0 0 0 0 0 0 0 0 0 0
0 0 0 0 0 0 0 0 0 0 0 0 0 0 0 0 0 0 0 0 0 0 0 0 0 0 0 0 0 0 0 0 0 0 0 0 0 0 0 0 0 0 0 0
Height
5770 5770 5770 5770 5770 5770 5771 5770 5770 5771 5770 5769 5767 5766 5765 5765 5765 5765 5765 5765 5765 5765 5765 5765 5765 5764 5764 5763 5763 5763 5762 5761 5761 5760 5758 5757 5755 5754 5752 5750 5748 5747 5745 5744
5765 5765 5765 5764 5765 5765 5765 5765 5764 5764 5764 5763 5762 5760 5760 5759 5759 5759 5759 5759 5759 5759 5759 5758 5758 5757 5757 5756 5756 5755 5754 5754 5752 5751 5750 5748 5746 5745 5743 5741 5739 5737 5736 5734
5759 5760 5759 5759 5761 5760 5760 5759 5759 5758 5758 5756 5755 5754 5754 5753 5753 5753 5752 5752 5752 5752 5752 5751 5751 5750 5749 5748 5748 5747 5746 5745 5744 5743 5742 5739 5738 5736 5734 5732 5730 5728 5726 5725
5754 5755 5754 5757 5755 5754 5754 5753 5753 5752 5751 5750 5749 5749 5748 5747 5747 5746 5745 5745 5745 5745 5744 5744 5743 5742 5742 5741 5740 5739 5738 5737 5735 5734 5733 5731 5729 5727 5725 5723 5721 5719 5717 5716
5748 5748 5748 5749 5749 5748 5748 5747 5747 5746 5745 5744 5743 5742 5742 5741 5740 5739 5739 5738 5737 5737 5737 5736 5736 5735 5734 5733 5732 5731 5730 5728 5727 5725 5724 5722 5720 5718 5716 5714 5712 5710 5709 5708
5742 5742 5742 5744 5743 5742 5742 5741 5741 5739 5738 5737 5737 5736 5736 5735 5733 5733 5732 5731 5730 5729 5729 5728 5728 5727 5726 5725 5724 5723 5722 5720 5718 5716 5715 5714 5712 5710 5708 5706 5704 5702 5701 5700
5736 5735 5736 5737 5736 5736 5737 5736 5734 5732 5732 5731 5730 5729 5729 5727 5726 5726 5725 5724 5723 5722 5721 5721 5720 5719 5718 5717 5716 5715 5713 5712 5710 5708 5707 5705 5704 5702 5700 5698 5697 5695 5694 5693
5730 5730 5732 5730 5730 5730 5729 5728 5727 5726 5725 5724 5723 5722 5721 5721 5720 5719 5718 5717 5716 5715 5714 5713 5712 5712 5711 5710 5708 5707 5705 5704 5702 5700 5699 5698 5696 5695 5693 5691 5690 5688 5687 5685
5724 5725 5724 5723 5723 5723 5722 5721 5720 5719 5719 5717 5716 5715 5715 5714 5713 5712 5711 5710 5709 5708 5707 5706 5705 5704 5703 5702 5701 5699 5698 5696 5695 5693 5692 5690 5689 5687 5686 5684 5683 5681 5680 5679
5716 5716 5717 5716 5716 5715 5715 5714 5713 5712 5711 5710 5709 5708 5708 5707 5706 5705 5704 5703 5702 5701 5700 5699 5698 5697 5696 5695 5693 5692 5690 5689 5687 5686 5684 5683 5681 5680 5679 5677 5676 5675 5673 5672
5708 5709 5709 5709 5709 5708 5707 5706 5706 5705 5704 5703 5702 5701 5701 5700 5699 5698 5697 5696 5695 5694 5693 5692 5691 5690 5689 5687 5686 5685 5683 5682 5680 5679 5677 5676 5674 5673 5672 5671 5670 5668 5667 5665
5701 5702 5701 5702 5701 5700 5700 5699 5699 5698 5697 5696 5695 5694 5693 5693 5692 5691 5690 5689 5688 5687 5686 5685 5684 5683 5682 5680 5679 5678 5676 5675 5674 5672 5671 5669 5668 5667 5665 5664 5663 5661 5660 5659
5693 5693 5693 5693 5693 5693 5692 5691 5691 5690 5689 5689 5688 5687 5686 5685 5685 5684 5683 5682 5681 5680 5679 5678 5677 5676 5675 5673 5672 5671 5670 5668 5667 5666 5664 5663 5662 5660 5659 5658 5657 5655 5654 5653
5686 5686 5686 5686 5686 5685 5685 5684 5683 5682 5681 5681 5680 5680 5679 5678 5678 5677 5676 5676 5675 5673 5672 5671 5670 5669 5668 5667 5665 5664 5663 5661 5660 5659 5658 5657 5655 5655 5654 5653 5652 5650 5648 5647
5678 5678 5678 5678 5678 5678 5677 5677 5676 5675 5674 5674 5673 5672 5672 5671 5671 5670 5669 5668 5667 5666 5665 5664 5664 5663 5661 5660 5659 5658 5656 5655 5654 5653 5652 5651 5649 5648 5647 5646 5645 5644 5643 5641
5670 5670 5670 5670 5670 5670 5670 5669 5668 5668 5667 5666 5666 5665 5664 5664 5663 5663 5662 5661 5660 5660 5659 5658 5657 5656 5655 5654 5653 5651 5650 5649 5648 5646 5645 5644 5643 5642 5641 5640 5639 5637 5636 5634
5662 5663 5663 5663 5663 5662 5662 5662 5661 5660 5660 5659 5658 5658 5657 5657 5656 5655 5655 5654 5653 5653 5652 5651 5650 5649 5648 5647 5646 5645 5643 5642 5641 5640 5639 5638 5637 5636 5634 5633 5632 5631 5629 5628
5654 5655 5655 5655 5655 5655 5655 5654 5654 5653 5652 5652 5651 5651 5650 5650 5649 5648 5648 5647 5647 5646 5645 5645 5644 5642 5641 5640 5639 5638 5637 5636 5635 5634 5632 5631 5630 5629 5628 5626 5625 5624 5622 5621
5646 5647 5647 5647 5647 5647 5647 5647 5646 5646 5645 5645 5644 5644 5643 5642 5642 5641 5641 5640 5640 5639 5639 5637 5636 5635 5634 5633 5632 5631 5629 5629 5628 5627 5625 5624 5623 5622 5621 5619 5618 5617 5615 5613
5639 5640 5640 5640 5640 5640 5640 5639 5639 5639 5638 5638 5637 5637 5636 5635 5635 5634 5634 5633 5633 5632 5631 5630 5629 5628 5627 5625 5624 5623 5622 5621 5620 5619 5618 5617 5616 5615 5614 5612 5611 5609 5608 5606
5632 5632 5632 5632 5633 5632 5632 5632 5632 5632 5631 5631 5630 5630 5629 5629 5628 5628 5627 5627 5626 5625 5624 5623 5622 5620 5619 5618 5617 5616 5615 5614 5613 5612 5611 5610 5608 5607 5606 5605 5603 5602 5600 5599
5625 5625 5625 5625 5625 5625 5625 5624 5624 5624 5624 5623 5623 5622 5622 5621 5621 5621 5620 5620 5619 5618 5617 5615 5614 5613 5611 5610 5609 5608 5607 5606 5605 5604 5603 5602 5601 5600 5598 5597 5596 5594 5592 5591
5617 5618 5618 5618 5618 5617 5617 5617 5616 5616 5616 5616 5615 5614 5614 5614 5613 5613 5613 5612 5611 5610 5609 5608 5606 5605 5604 5602 5601 5600 5599 5598 5597 5596 5595 5594 5593 5592 5591 5589 5588 5586 5584 5583
5610 5610 5610 5610 5610 5610 5609 5609 5608 5608 5608 5608 5607 5607 5606 5606 5605 5605 5604 5603 5602 5601 5600 5599 5598 5597 5595 5594 5593 5592 5591 5590 5589 5588 5587 5586 5585 5583 5582 5581 5579 5578 5576 5574
5602 5602 5602 5602 5602 5602 5602 5601 5601 5600 5600 5600 5599 5599 5598 5597 5597 5596 5595 5594 5593 5592 5592 5591 5589 5588 5587 5586 5585 5584 5583 5582 5580 5579 5578 5577 5576 5575 5573 5572 5570 5569 5567 5565
5595 5595 5595 5595 5594 5594 5594 5593 5593 5592 5592 5592 5591 5590 5590 5589 5588 5587 5587 5586 5585 5584 5583 5582 5581 5580 5579 5578 5577 5575 5574 5573 5572 5571 5569 5568 5567 5566 5564 5563 5561 5560 5558 5556
5587 5587 5587 5587 5587 5586 5586 5585 5585 5585 5584 5583 5583 5582 5581 5580 5579 5578 5578 5577 5576 5575 5574 5573 5572 5572 5570 5569 5568 5567 5565 5564 5563 5562 5560 5559 5558 5557 5555 5553 5552 5550 5548 5547
Wind_Speed
18 18 19 20 19 19 20 21 21 20 21 21 23 23 23 23 22 21 21 22 23 23 23 23 24 25 25 25 26 26 26 27 27 28 29 30 29 30 30 29 30 30 30 30
19 18 19 20 19 19 20 21 22 22 21 21 22 24 24 24 23 21 21 23 23 23 23 24 25 25 25 26 26 26 27 28 28 28 29 30 29 30 31 31 32 32 31 31
20 19 20 20 19 20 20 20 21 22 21 21 22 23 24 25 24 23 23 23 24 24 24 24 25 25 25 26 26 27 28 28 29 29 30 30 30 31 31 32 32 31 31 31
21 21 22 21 20 20 21 22 22 22 22 22 23 23 24 24 25 24 24 25 25 25 25 25 25 26 26 26 27 27 28 28 29 29 29 29 30 30 30 30 30 30 30 29
23 24 23 21 21 21 23 23 22 23 23 23 24 24 24 24 24 25 25 24 25 26 25 25 25 26 26 26 26 27 27 28 28 29 29 29 30 30 29 29 29 29 29 28
23 24 26 23 22 23 23 24 24 24 24 24 24 24 24 25 25 25 25 25 25 25 25 25 25 26 26 26 26 26 27 28 28 28 29 29 29 28 28 28 28 28 28 27
24 25 26 24 24 24 24 24 25 25 25 24 24 25 25 25 25 25 25 25 25 25 25 25 25 26 26 26 26 27 27 28 29 29 28 28 28 27 27 27 27 26 26 27
25 26 26 25 25 26 26 25 26 25 25 26 25 25 25 25 24 24 24 24 25 25 25 24 25 25 25 26 26 27 27 27 27 27 27 27 27 26 26 26 25 26 26 25
26 26 26 26 27 26 27 27 27 26 25 25 25 25 25 25 24 24 24 25 25 25 25 24 24 24 25 25 26 26 26 26 26 26 26 26 25 25 25 24 24 24 24 25
27 27 27 27 27 27 27 28 27 26 26 26 25 25 25 25 25 25 24 24 24 24 24 24 24 24 24 24 24 25 25 24 24 24 25 25 25 25 24 24 24 24 24 25
27 27 27 26 26 27 27 28 27 25 25 25 25 25 25 25 25 25 25 24 24 24 24 24 24 24 25 25 24 24 24 24 24 24 24 24 24 24 24 24 24 24 23 23
27 26 27 27 27 27 28 28 27 26 26 26 26 26 25 24 24 24 24 23 23 24 24 24 23 24 24 24 25 24 24 24 24 23 24 23 23 23 23 23 23 23 22 22
28 28 28 28 27 28 28 28 27 27 27 26 26 26 25 24 24 23 23 23 23 23 23 23 23 23 24 23 23 24 24 24 24 23 23 23 22 22 22 22 22 22 22 22
28 28 28 28 28 27 27 27 28 27 27 26 26 26 25 24 23 23 23 23 24 24 23 23 23 23 23 23 22 23 23 23 23 23 22 22 22 21 21 21 21 22 22 22
28 29 29 29 28 27 27 27 27 26 26 26 26 25 24 24 23 23 24 24 24 23 23 23 23 22 22 22 22 22 22 22 22 22 21 22 22 22 21 21 21 22 22 22
27 28 28 28 27 26 26 26 26 26 26 26 25 24 24 24 23 24 23 24 23 22 22 22 23 23 22 22 22 22 22 22 21 22 22 21 21 21 22 22 22 22 22 23
27 27 27 26 26 26 25 25 25 25 24 24 25 25 24 23 23 23 23 23 22 22 22 22 23 23 23 23 23 23 22 22 22 22 21 21 22 22 22 22 22 23 23 23
27 26 27 26 26 25 25 25 25 25 24 24 24 24 23 23 23 23 23 23 22 22 22 23 24 24 24 23 22 22 22 22 22 22 22 22 22 23 23 23 23 23 23 23
25 26 26 26 26 25 25 25 25 25 25 24 24 24 23 23 23 23 23 22 23 23 23 24 24 24 24 23 23 22 22 22 22 22 23 23 23 23 23 23 23 24 24 24
25 25 25 25 24 24 24 24 25 25 25 24 24 23 23 23 23 22 22 22 22 23 23 24 24 24 24 24 24 23 23 23 24 24 24 24 24 24 24 24 24 24 24 24
23 24 24 24 24 24 25 25 25 25 24 24 24 24 24 23 23 23 22 22 22 24 24 24 24 24 24 25 25 24 24 25 25 25 24 24 24 24 25 25 25 25 25 25
23 23 23 23 23 23 24 25 25 25 24 25 25 25 25 24 24 23 23 24 24 24 25 25 25 25 25 25 25 26 26 26 25 25 25 25 24 24 25 25 25 26 26 26
23 23 23 23 23 23 23 24 24 24 24 24 25 25 25 25 25 25 25 26 26 26 25 26 26 25 25 26 26 26 26 26 26 26 26 26 26 26 26 26 26 26 27 27
24 24 23 23 24 24 24 23 24 24 25 25 25 25 25 25 26 26 26 27 27 27 26 26 26 26 26 27 27 27 27 27 27 27 27 27 27 27 27 27 27 27 27 28
25 24 24 24 24 24 24 24 24 24 25 25 26 26 26 26 26 26 27 27 28 27 27 27 27 27 27 27 27 27 27 27 28 28 28 27 27 28 28 28 28 28 28 29
25 25 25 24 24 24 24 24 24 24 24 25 26 27 27 27 27 27 27 27 27 27 27 27 27 26 27 27 27 27 27 27 27 28 28 28 28 28 28 29 29 29 30 30
24 24 24 24 24 24 24 24 24 24 25 25 26 26 27 27 27 27 27 27 27 27 27 27 27 27 27 27 28 28 28 27 27 27 27 28 28 29 29 29 30 30 30 30
Wind_Direction
263 265 269 272 269 268 268 268 268 268 269 270 273 275 275 273 272 274 273 272 272 271 271 271 270 271 271 273 273 274 274 276 279 280 282 283 284 286 287 287 287 286 285 285
261 261 265 271 273 273 272 270 270 270 269 270 272 272 273 273 272 272 271 271 272 272 272 272 273 274 274 274 274 274 275 276 278 280 281 282 284 286 286 287 288 288 286 285
259 262 264 267 273 275 275 274 274 271 272 271 271 271 271 273 274 274 272 272 272 271 272 273 275 275 275 276 277 276 278 279 279 280 280 281 284 286 287 287 287 288 287 286
260 264 267 273 274 276 275 274 272 272 273 272 271 271 272 273 274 274 274 274 273 272 273 274 276 277 277 277 277 278 279 280 280 280 280 281 284 286 287 288 287 287 287 287
261 263 268 273 275 276 276 274 274 275 275 276 275 275 274 275 276 276 275 275 275 273 274 275 276 277 277 278 277 278 280 281 281 282 283 283 285 287 288 289 288 287 287 287
264 265 266 272 277 276 276 276 276 276 278 279 277 276 275 275 276 276 276 278 277 275 274 275 276 277 278 279 279 280 280 281 282 283 285 284 284 286 287 289 288 287 287 287
264 267 270 273 275 276 276 276 276 275 277 279 278 277 277 277 278 279 278 278 277 275 275 276 276 278 279 281 281 281 281 282 284 286 287 286 285 285 286 288 288 288 288 287
267 268 270 273 273 274 275 276 277 277 277 278 278 276 276 277 278 279 279 278 278 277 276 277 279 280 280 282 283 283 283 284 286 288 288 286 284 284 286 287 288 289 289 288
269 270 272 273 274 275 275 275 276 277 277 278 278 277 277 276 278 278 278 279 278 277 276 278 280 280 281 283 284 285 284 285 286 287 287 287 285 286 286 287 288 290 290 291
271 271 272 272 273 274 275 275 276 275 276 278 278 277 278 277 277 278 279 280 279 277 276 278 280 280 282 284 286 287 286 286 286 287 287 287 287 287 287 286 288 290 292 293
268 269 270 271 273 273 274 275 275 274 276 278 279 279 279 278 279 280 281 281 280 279 279 280 279 281 282 283 285 286 287 287 287 287 288 287 288 288 288 287 288 290 293 295
266 267 268 269 271 273 274 274 275 274 276 278 279 278 279 278 279 280 280 281 281 282 281 280 280 281 282 284 285 286 286 287 289 288 289 289 288 287 286 287 288 291 294 295
266 266 267 269 272 274 274 273 274 274 275 278 279 278 279 279 277 278 279 280 282 282 282 282 283 282 282 284 284 285 286 287 288 289 290 290 289 288 288 289 292 294 296 298
266 267 268 270 272 274 274 275 275 276 277 277 278 279 279 279 277 276 277 278 280 280 280 282 282 283 284 285 285 286 286 286 287 288 288 290 290 289 288 288 291 293 294 295
268 268 269 270 272 274 274 275 276 276 276 276 276 277 278 277 277 276 276 278 279 278 278 279 281 283 285 286 285 285 286 286 287 286 285 286 288 289 289 289 291 293 294 294
268 269 270 270 272 273 274 275 276 276 275 275 275 276 278 277 277 277 277 277 277 277 278 279 281 284 285 286 287 286 285 286 287 287 286 286 288 289 290 289 290 292 293 294
268 268 270 271 272 273 273 275 276 276 275 275 275 275 276 277 278 277 276 276 275 275 277 280 281 284 285 286 286 286 285 286 286 287 289 289 289 290 291 291 291 291 292 294
268 268 270 272 273 273 273 274 275 275 274 274 275 275 275 275 276 277 277 275 275 276 278 280 281 283 285 285 285 285 285 285 286 286 289 291 292 292 293 293 292 294 295 296
268 269 270 272 273 274 274 274 275 275 275 274 275 275 274 274 275 276 276 275 275 276 279 282 283 282 283 284 285 285 285 285 286 287 288 289 290 291 291 291 291 291 293 294
269 270 271 272 273 273 272 273 275 275 275 276 276 276 276 275 276 277 275 275 278 280 281 282 282 282 282 283 284 284 284 285 286 288 289 289 288 288 289 291 291 291 293 294
270 270 270 271 272 272 272 272 273 274 275 275 275 275 275 275 275 275 276 277 279 282 282 281 281 281 281 282 283 284 284 285 285 287 288 288 288 288 288 290 291 292 293 294
272 272 271 272 273 275 274 273 272 272 272 273 274 274 274 274 273 273 275 277 280 282 282 283 283 281 282 282 283 283 284 284 285 286 287 287 287 288 288 289 291 292 292 293
274 274 274 274 275 276 277 274 271 271 271 274 275 275 275 274 275 276 277 278 280 281 281 282 284 283 283 283 284 284 284 284 284 285 285 286 286 287 288 289 290 291 292 293
274 275 274 275 275 276 276 275 273 271 271 273 275 275 275 276 276 277 278 280 281 281 281 281 282 283 284 284 284 284 284 283 283 284 285 285 286 287 288 289 290 292 293 293
273 274 273 274 274 275 275 275 274 273 271 272 274 276 277 278 278 278 279 280 280 281 281 281 282 283 283 283 284 285 285 284 284 284 284 284 286 286 287 288 289 291 292 293
273 272 272 272 273 274 275 275 274 274 274 274 275 276 277 278 279 279 280 280 280 280 281 281 280 281 282 283 283 283 285 285 284 284 284 285 286 287 288 289 289 290 291 293
274 273 272 272 273 274 275 275 276 276 277 278 277 277 278 280 281 280 280 279 279 280 280 280 280 281 283 284 284 283 284 284 285 285 285 286 287 288 289 290 290 291 292 292